User: anonymous   Login
Location: Starry Hill Observatory
(46.8582°N, 122.3590°W)
Time: 03:04:15
(UTC-07:00)
Language:

Cosmos 1300 Rocket - Orbit

View from above orbital plane
View from above orbital plane
View from above satellite
View from above satellite

Ground track
Ground track

The orbit data is extracted from the following two-line orbital elements,

1 12786U 81082B   17231.68775201  .00000099  00000-0  87904-5 0  9994
2 12786  82.4869 267.8549 0018710  48.9302 311.3526 14.84691177944238
Epoch (UTC): 19 August 2017 16:30:21
Eccentricity: 0.0018710
inclination: 82.4869°
perigee height: 601 km
apogee height: 627 km
right ascension of ascending node: 267.8549°
argument of perigee: 48.9302°
revolutions per day: 14.84691177
mean anomaly at epoch: 311.3526°
orbit number at epoch: 94423

The dashed part of the orbit path shows where the satellite is in the earth's shadow,  

DLR